Location: Rotherfield
(51.0333°N, 0.2167°E)
Time: 12:11:41
(UTC+00:00)

Daily predictions for brighter satellites

Satellite Brightness Start Highest point End
(mag) Time Altitude Azimuth Time Altitude Azimuth Time Altitude Azimuth
Centaur D AC-29 4.3 20:38:57 10° S 20:43:27 15° SE 20:52:26 10° ESE
ARGOS Delta rocket 3.9 20:40:15 10° SSE 20:45:05 72° ENE 20:49:41 10° N
Cosmos 1151 Rocket 3.8 20:44:31 10° SSE 20:48:24 34° E 20:52:19 10° NNE
Cosmos 1975 4.0 20:46:36 10° N 20:50:04 29° ENE 20:53:30 10° SE
Cosmos 1992 Rocket 4.3 20:48:03 10° NNW 20:53:13 57° ENE 20:58:20 10° SE
Cosmos 1302 Rocket 4.2 20:52:30 10° NNW 20:57:43 76° WSW 21:02:54 10° SSE
MOS 1 Rocket 3.8 20:54:38 10° SSE 20:59:47 60° ENE 21:05:08 10° N
USA 281 3.7 20:54:45 10° SE 21:01:05 52° NE 21:07:26 10° NNW
NOSS 3-3 (A) 4.4 20:58:16 10° S 21:03:09 34° ESE 21:08:41 10° NE
Cosmos 1536 3.7 21:01:10 10° NNW 21:04:57 47° W 21:08:44 10° SSW
Meteor 1-19 Rocket 4.3 21:00:47 10° S 21:06:35 75° E 21:12:13 10° NNE
NOSS 2-1 (C) 4.0 21:03:32 10° NW 21:07:16 55° SW 21:12:16 10° SSE
Meteor 2-17 Rocket 4.5 21:02:45 10° S 21:08:43 66° E 21:14:43 10° NNE
Cosmos 1340 2.5 21:05:28 10° NNW 21:08:53 77° W 21:12:15 10° S
Cosmos 1943 4.3 21:04:02 10° SW 21:09:31 49° NW 21:15:02 10° NNE
Landsat 4 3.5 21:09:43 10° SSE 21:13:12 81° WSW 21:16:42 10° NNW
Meteor 2-10 4.5 21:09:42 10° NNW 21:15:07 66° W 21:20:19 10° S
Okean-O 4.4 21:12:30 10° SSW 21:16:18 28° W 21:20:07 10° NW
Cosmos 1500 Rocket 4.1 21:12:14 10° NNW 21:16:27 55° W 21:20:38 10° S
USA 245 3.0 21:14:28 10° S 21:16:45 46° W 21:19:22 10° NNW
Nadezhda 4 Rocket 4.0 21:11:24 10° S 21:17:35 76° E 21:23:53 10° NNE
NOSS 3-4 (A) 4.4 21:11:19 10° NW 21:17:42 53° NE 21:25:05 10° ESE
NOSS 3-4 (C) 4.4 21:11:25 10° NW 21:17:48 52° NE 21:25:11 10° ESE
Spot 2 Rocket 3.6 21:12:51 10° SSE 21:17:53 83° WSW 21:22:59 10° NNW
MetOp-A 4.3 21:14:04 11° SE 21:18:28 52° ENE 21:23:26 10° N
Cosmos 1626 3.0 21:17:57 14° SE 21:20:03 25° E 21:22:45 10° NE
Cosmos 1726 4.4 21:20:51 10° NW 21:22:52 16° W 21:24:51 10° SW
SPOT 5 4.0 21:19:02 10° SSW 21:23:06 35° W 21:27:06 10° NNW
Sich 1 3.7 21:19:45 10° NNW 21:24:03 55° W 21:28:18 10° S
Cosmos 1697 Rocket 3.3 21:20:34 10° NNW 21:26:01 47° NE 21:31:08 11° SE
BREEZE-M DEB (TANK) 3.7 21:16:10 10° SW 21:27:02 43° SSE 21:30:24 10° E
Cosmos 1805 Rocket 4.3 21:23:49 10° NNW 21:28:06 51° W 21:32:22 10° S
Cosmos 1733 4.0 21:26:31 10° NNW 21:29:51 41° W 21:33:09 10° SSW
Cosmos 1633 Rocket 3.4 21:27:01 10° N 21:31:23 55° ENE 21:34:53 15° SSE
IRIDIUM 104 4.5 21:27:06 10° N 21:32:17 61° E 21:36:47 14° SSE
Cosmos 1980 Rocket 3.5 21:30:52 10° NNW 21:36:00 33° NE 21:41:06 10° ESE
NOSS 3-3 (C) 3.9 21:31:21 10° SSW 21:36:36 53° ESE 21:42:48 10° NE
Cosmos 1666 Rocket 3.5 21:33:01 10° N 21:37:21 74° ENE 21:40:50 15° SSE
Lacrosse 5 rocket 2.4 21:34:46 10° WNW 21:38:52 44° NNE 21:42:51 10° E
SL-8 R/B 3.8 21:34:23 10° W 21:39:03 58° S 21:43:38 10° ESE
Ariane Rocket 3.5 21:36:17 10° S 21:41:16 56° W 21:46:17 10° NNW
IRIDIUM 114 4.4 21:36:12 10° N 21:41:27 72° E 21:45:55 14° SSE
Cosmos 44 Rocket 3.4 21:36:53 10° NW 21:41:52 74° NE 21:45:49 15° SE
Cosmos 1674 4.1 21:44:53 16° ESE 21:46:23 21° E 21:49:04 10° NE
USA 234 4.1 21:40:28 10° ENE 21:46:50 55° N 21:53:11 10° W
IRIDIUM 103 4.3 21:45:21 10° N 21:50:37 85° E 21:55:03 15° S
Meteor 2-4 Rocket 3.8 21:46:58 10° S 21:52:53 82° E 21:58:51 10° NNE
ERS-1 Rocket 4.3 21:49:12 10° SSW 21:53:44 33° W 21:58:17 10° NNW
Cosmos 1340 Rocket 4.2 21:50:26 10° SW 21:54:11 38° WNW 21:57:56 10° N
Lacrosse 4 Rocket 2.4 21:50:50 10° NW 21:54:36 35° WSW 21:57:32 15° S
Cosmos 2026 Rocket 4.0 21:49:43 10° S 21:55:58 79° E 22:02:11 10° NNE
SPOT 3 Rocket 4.3 21:51:13 10° S 21:56:10 47° W 22:01:08 10° NNW
Spot 1 4.0 21:52:39 10° NNE 21:56:48 88° ESE 22:01:02 10° SSW
Cosmos 614 Rocket 4.4 21:52:30 10° SW 21:57:41 67° WNW 22:02:55 10° NNE
Cosmos 1818 3.6 21:54:45 10° SW 22:00:13 87° SE 22:05:45 10° NE
USA 59 Rocket 1.8 21:59:49 10° WNW 22:03:13 24° SW 22:06:48 13° S
Cosmos 1805 4.5 22:00:41 10° NNW 22:04:04 34° W 22:07:13 11° SSW
H-2A R/B 3.7 22:01:54 16° ESE 22:04:44 32° ENE 22:08:36 10° N
Cosmos 1607 4.3 21:58:58 10° S 22:05:04 46° ESE 22:11:12 10° NE
Cosmos 1766 3.1 22:03:32 10° N 22:07:19 83° E 22:09:34 23° SSE
Terra 3.5 22:03:49 10° SSW 22:07:49 27° W 22:11:52 10° NW
Cosmos 1833 Rocket 2.8 22:07:46 12° S 22:12:51 59° ESE 22:18:22 10° NE
ALOS 2 4.2 22:12:16 13° ESE 22:15:18 25° ENE 22:18:54 10° N
SL-16 R/B 4.2 22:11:12 10° NNW 22:15:33 22° NE 22:19:53 10° E
Cosmos 1269 Rocket 4.1 22:13:54 10° SSW 22:19:10 81° WNW 22:24:29 10° NNE
Cosmos 1470 2.8 22:18:08 10° N 22:21:49 57° ENE 22:23:37 27° SE
Landsat 5 4.0 22:19:52 10° N 22:23:33 50° WNW 22:27:17 10° SW
S3M 4.5 22:18:30 10° N 22:24:47 53° ENE 22:29:12 20° SE
Cosmos 1975 4.4 22:22:30 10° NNW 22:25:55 28° W 22:28:58 12° SSW
Cosmos 2082 Rocket 3.4 22:23:57 19° SE 22:26:21 25° ESE 22:30:56 10° NE
Cosmos 2251 Rocket 4.2 22:24:49 22° SSE 22:27:30 37° ESE 22:32:20 10° NE
Cosmos 1553 Rocket 4.0 22:24:48 10° N 22:30:55 85° W 22:35:15 21° S
GEOS 3 Rocket 3.6 22:32:34 10° NE 22:37:43 62° SE 22:42:27 12° SSW
Cosmos 1908 3.2 22:34:12 10° N 22:37:44 58° ENE 22:39:14 31° SE
Cosmos 724 4.3 22:34:34 13° SSW 22:39:50 62° ESE 22:45:35 10° NE
ARIANE 5 R/B 2.6 22:40:25 26° S 22:42:48 74° WSW 22:47:08 10° NNW
Cosmos 2315 Rocket 4.5 22:39:11 10° N 22:45:22 52° ENE 22:49:34 21° SE
USA 281 4.0 22:41:02 17° S 22:45:43 42° WSW 22:51:57 10° NW
H-2A R/B 4.1 22:45:38 10° NE 22:48:12 15° E 22:49:42 13° ESE
CZ-2C R/B 3.6 22:46:27 10° NNE 22:50:57 84° WNW 22:53:46 22° SSW
Cosmos 1023 Rocket 4.5 22:48:16 17° SSW 22:52:25 89° WNW 22:57:39 10° NNE
Cosmos 2285 Rocket 4.0 22:48:47 19° S 22:53:26 72° ESE 22:59:47 10° NNE
Cosmos 1626 4.0 22:50:58 10° WSW 22:53:32 22° WNW 22:56:08 10° NNW
NOSS 3-3 (A) 4.4 22:48:00 10° WSW 22:53:37 62° NW 23:00:14 10° NE
Cosmos 1346 Rocket 4.5 22:53:40 10° NNE 22:56:50 23° ENE 22:58:57 16° ESE
Cosmos 1515 Rocket 3.8 22:54:04 21° SSW 22:56:54 62° WNW 23:01:12 10° N
Meteor 1-22 Rocket 4.2 22:52:34 10° N 22:57:55 69° ENE 23:01:09 25° SSE
Cosmos 1140 Rocket 3.5 22:54:17 17° SSW 22:58:22 85° WNW 23:03:37 10° NNE
Spot 4 3.8 22:58:19 28° SSE 23:00:54 85° ENE 23:05:42 10° NNW
Cosmos 1733 Rocket 4.1 22:56:53 10° N 23:00:55 36° ENE 23:03:12 21° SE
BREEZE-M DEB (TANK) 4.3 22:56:20 10° SW 23:01:06 60° SE 23:21:05 10° ENE
Cosmos 1707 2.6 23:00:27 31° SSW 23:02:04 78° W 23:05:44 10° N
Spot 2 4.4 23:01:25 27° SSE 23:04:06 76° ENE 23:09:08 10° NNW
Cosmos 1400 Rocket 3.8 23:02:59 27° SE 23:04:15 34° E 23:07:51 10° NNE
PSLV R/B 3.9 23:00:32 10° NNE 23:04:36 76° WNW 23:06:48 26° SSW
Cosmos 1300 3.5 23:01:58 10° N 23:05:18 36° ENE 23:06:40 26° ESE
Cosmos 2266 Rocket 4.0 23:02:10 24° S 23:06:09 78° E 23:12:29 10° NNE
Cosmos 1869 Rocket 3.5 23:03:33 10° NNW 23:07:57 81° W 23:10:01 31° S
NOSS 3-4 (A) 4.1 23:02:09 10° NW 23:08:50 56° SW 23:13:38 23° SSE
NOSS 3-4 (C) 4.1 23:02:15 10° NW 23:08:56 57° SW 23:13:46 23° SSE
Cosmos 1697 Rocket 3.6 23:04:46 10° NW 23:09:53 36° WSW 23:12:51 21° SSW
Cosmos 2322 Rocket 3.8 23:05:45 10° NNW 23:10:42 30° NE 23:15:38 10° ESE
Cosmos 1441 Rocket 3.0 23:07:18 10° NNW 23:10:53 76° W 23:12:05 39° S
Meteor 1-15 Rocket 4.2 23:08:03 10° NNW 23:13:44 89° ENE 23:16:53 27° SSE
OPS 6432 4.1 23:10:56 10° NW 23:14:03 64° SW 23:14:38 50° S
In-Cosmos 22 4.2 23:12:55 25° S 23:16:21 80° E 23:22:03 10° NNE
Lacrosse 5 rocket 1.3 23:13:15 10° WNW 23:17:24 65° SW 23:19:04 33° SSE
Cosmos 1980 Rocket 2.4 23:14:45 10° NW 23:20:22 60° WSW 23:23:22 27° S
Cosmos 1674 4.0 23:18:27 17° SW 23:20:31 31° WNW 23:23:40 10° N
Cosmos 2228 Rocket 3.6 23:19:15 29° SSE 23:21:06 48° E 23:25:29 10° NNE
Cosmos 1842 4.3 23:19:04 19° SW 23:21:12 36° WNW 23:24:39 10° N
Cosmos 2333 Rocket 3.9 23:21:15 10° NNW 23:26:13 29° NE 23:31:11 10° ESE
Cosmos 540 Rocket 3.4 23:22:35 10° NNW 23:27:47 83° WSW 23:30:29 29° SSE
Cosmos 1356 Rocket 4.3 23:27:09 28° SE 23:28:33 36° E 23:32:23 10° NNE
USA 234 3.8 23:22:58 10° E 23:29:24 60° NNE 23:35:49 10° WNW
Cosmos 1953 4.0 23:26:47 10° NNE 23:29:59 24° ENE 23:32:08 15° ESE
Cosmos 1655 Rocket 4.0 23:26:16 25° S 23:30:11 82° E 23:36:37 10° NNE
Cosmos 1763 Rocket 3.7 23:24:58 10° NNW 23:30:12 61° WSW 23:32:48 29° S
BREEZE-M DEB (TANK) 3.3 23:30:21 10° W 23:37:30 - SE 23:31:43 29° SW
Cosmos 468 Rocket 4.0 23:27:42 10° NNW 23:33:02 82° WSW 23:35:47 29° SSE
GP-B 3.1 23:32:00 10° N 23:36:24 70° E 23:38:18 33° SSE
SL-14 R/B 3.3 23:36:11 39° SSE 23:37:25 63° E 23:41:13 10° NNE
H-2A R/B 3.7 23:37:53 23° SW 23:39:39 32° W 23:43:32 10° NNW
Cosmos 407 Rocket 3.9 23:36:24 17° SW 23:40:28 59° WNW 23:45:39 10° NNE
Cosmos 1455 3.8 23:38:42 10° NNE 23:41:33 23° ENE 23:43:13 17° ESE
CZ-3 Stage 3 4.4 23:28:10 10° WSW 23:42:03 23° SSW 23:43:39 22° S
Cosmos 1862 Rocket 3.8 23:42:08 33° SSE 23:43:50 57° E 23:48:07 10° NNE
Aureole 3 3.3 23:44:34 38° ESE 23:45:04 41° E 23:48:12 10° NNE
RESURS DK-1 4.3 23:43:16 10° NNW 23:46:45 26° NE 23:50:13 10° ESE
SJ 16-02 3.7 23:46:13 10° ESE 23:47:11 11° E 23:48:09 10° E
Cosmos 676 Rocket 4.2 23:44:46 30° S 23:47:21 62° ESE 23:52:38 10° NNE
Cosmos 2369 4.1 23:42:34 10° NW 23:48:03 48° WSW 23:50:46 28° S
Cosmos 1954 Rocket 4.0 23:45:26 29° SSW 23:48:14 75° ESE 23:53:33 10° NNE
ALOS 2 3.2 23:49:40 29° SSW 23:51:26 45° W 23:55:40 10° NNW
Cosmos 1190 Rocket 4.1 23:51:06 24° SSW 23:54:22 78° WNW 23:59:42 10° NNE
Cosmos 1758 3.5 23:52:13 10° NNW 23:55:59 54° W 23:57:14 36° SSW
